Regional Weather Roundup
Issued by NWS

Home | Current Version | Previous Version | Text Only | Print | Product List | Glossary Off
Versions: 1 2 3 4 5 6 7 8 9 10 11 12 13 14 15 16 17 18 19 20 21 22 23 24 25 26 27

000
ASUS45 KPSR 211910
RWRAZ

ARIZONA HOURLY REGIONAL WEATHER ROUNDUP
NATIONAL WEATHER SERVICE PHOENIX AZ
1200 PM MST FRI JUL 21 2017

NOTE: FAIR INDICATES FEW OR NO CLOUDS BELOW 12,000 FEET WITH NO
SIGNIFICANT WEATHER AND/OR OBSTRUCTIONS TO VISIBILITY.

AZZ001>003-036-212000-
NORTHWEST ARIZONA

CITY           SKY/WX    TMP DP  RH WIND       PRES   REMARKS
BULLHEAD CITY  MOSUNNY  102  54  19 S12G18    29.86F HX 100
KINGMAN        SUNNY     94  53  25 SW16      30.08F
$$

AZZ004>008-015-016-018-212000-
NORTH CENTRAL ARIZONA

CITY           SKY/WX    TMP DP  RH WIND       PRES   REMARKS
GRAND CANYON   CLOUDY    76  54  46 VRB7      30.30F
WILLIAMS       PTSUNNY   75  55  50 N6G13     30.31F
PRESCOTT       PTSUNNY   82  59  45 VRB3      30.19F
FLAGSTAFF      CLOUDY    72  58  61 SW5       30.33F
PAYSON         PTSUNNY   81  61  50 W12       30.22F
PAGE           PTSUNNY   91  55  29 NE10      30.09F
$$

AZZ009>014-017-212000-
NORTHEAST ARIZONA

CITY           SKY/WX    TMP DP  RH WIND       PRES   REMARKS
WINSLOW        MOSUNNY   87  55  33 NW13G20   30.16F
SAINT JOHNS    PTSUNNY   80  57  45 W5        30.20F
WINDOW ROCK    MOSUNNY   82  51  34 SW9       30.28F
SHOW LOW       MOSUNNY   73  54  49 NE7       30.27F
$$

AZZ540-542>544-546-548-212000-
GREATER PHOENIX AREA

CITY           SKY/WX    TMP DP  RH WIND       PRES   REMARKS
PHOENIX        MOSUNNY   98  63  31 S8        29.91F HX 100
BUCKEYE        SUNNY     95  59  30 S9        29.93F
GLENDALE       MOSUNNY   99  63  30 SW8       29.93F HX 100
LUKE AFB       MOSUNNY   96  65  36 SW8       29.91F
DEER VALLEY    SUNNY     95  66  38 MISG      29.93F
SCOTTSDALE     SUNNY     94  64  37 VRB3      29.96F
MESA-GATEWAY   MOSUNNY   91  70  49 VRB6      29.96F
CHANDLER       SUNNY     95  63  34 SW7       29.94F
$$

AZZ539-553-212000-
SOUTHWEST MARICOPA COUNTY AND PINAL COUNTY

CITY           SKY/WX    TMP DP  RH WIND       PRES   REMARKS
CASA GRANDE    MOSUNNY   91  67  44 VRB3      29.97F
GILA BEND      MOSUNNY   99  59  26 CALM      29.91F
$$

AZZ503-504-507>509-212000-
SOUTHEAST ARIZONA

CITY           SKY/WX    TMP DP  RH WIND       PRES   REMARKS
TUCSON         MOSUNNY   88  64  44 N7        30.05F
DAVIS-MONTHAN  MOSUNNY   90  67  47 W7        30.04F
RYAN FIELD     SUNNY     88  66  48 W5        30.04F
NOGALES        PTSUNNY   81  66  60 MISG      30.13S
SIERRA VISTA   PTSUNNY   74  64  69 N8        30.20S
DOUGLAS        PTSUNNY   82  64  54 SE8G20    30.12F
SAFFORD        MOSUNNY   86  64  47 VRB3      30.05F
$$

AZZ532-212000-
SOUTHWEST ARIZONA

CITY           SKY/WX    TMP DP  RH WIND       PRES   REMARKS
YUMA           SUNNY    101  64  29 S13G18    29.85F HX 104
$$

CAZ041-043-047-048-061-525>527-560>570-212000-
SOUTHERN CALIFORNIA

CITY           SKY/WX    TMP DP  RH WIND       PRES   REMARKS
DOWNTOWN L.A.  SUNNY     84  64  50 CALM      29.95F
L.A. AIRPORT   SUNNY     75  64  68 W12       29.97S
SAN DIEGO      MOSUNNY   73  62  68 S10       29.99F
BURBANK        SUNNY     82  59  45 S6        29.96F
ONTARIO        SUNNY     86  52  30 VRB6      29.96F
RIVERSIDE      SUNNY     88  55  32 SW6       29.95F
PALM SPRINGS   SUNNY    100  50  18 CALM      29.88F
EL CENTRO NAS  MOSUNNY  101  60  25 MISG      29.85F HX 101
IMPERIAL       MOSUNNY  100  68  35 VRB5      29.82F HX 105
BLYTHE         SUNNY    101  59  24 S15       29.86F HX 101
NEEDLES        SUNNY    106  52  16 S8        29.88F HX 103
$$

NVZ020-UTZ003-212000-
SOUTHERN NEVADA-UTAH

CITY           SKY/WX    TMP DP  RH WIND       PRES   REMARKS
LAS VEGAS      MOSUNNY  101  48  16 S8        29.94F
SALT LAKE CITY MOSUNNY   93  52  24 VRB5      30.05F
$$

NMZ009-TXZ055-212000-
NEW MEXICO-WEST TEXAS

CITY           SKY/WX    TMP DP  RH WIND       PRES   REMARKS
ALBUQUERQUE    MOSUNNY   85  49  28 S8        30.18F
EL PASO        MOSUNNY   88  60  38 VRB3      30.10F
$$


........................KEY........................
SKY/WX - SKY CONDITION/WEATHER
TMP    - TEMPERATURE IN FAHRENHEIT
DP     - DEW POINT IN FAHRENHEIT
RH     - RELATIVE HUMIDITY IN PERCENT
WIND   - DIRECTION AND SPEED IN MILES PER HOUR (MPH)
VRB    - VARIABLE WIND DIRECTION
PRES   - MEAN SEA LEVEL PRESSURE IN INCHES OF MERCURY
         F - FALLING PRESSURE   R - RISING PRESSURE
         S - STEADY PRESSURE
VSB    - VISIBILITY IN MILES
HX     - HEAT INDEX IN FAHRENHEIT
WCI    - WIND CHILL INDEX IN FAHRENHEIT
TC     - TEMPERATURE IN CELSIUS WHICH IS ALSO KNOWN AS
         TEMPERATURE IN CENTIGRADE
AFB    - AIR FORCE BASE
         LUKE AFB IS LUKE AIR FORCE BASE
         DAVIS-MONTHAN IS DAVIS-MONTHAN AIR FORCE BASE
NAS    - NAVAL AIR STATION
         EL CENTRO NAS IS EL CENTRO NAVAL AIR STATION
N/A    - NOT AVAILABLE





USA.gov is the U.S. government's official web portal to all federal, state and local government web resources and services.